Probability
0 0 0 0 0 0 0 0 0 0 0 0 0 0 3 0 0 0 0 0 0 0 0 0 0 0 0 0 0 0 0 0 0 0 0 0 0 0 0 0 0 0 0
0 0 0 0 0 0 0 0 0 0 0 0 0 0 3 0 0 0 0 0 0 3 3 0 0 0 0 0 0 0 0 0 0 0 0 0 0 0 0 0 0 0 0
0 0 0 0 0 0 0 0 0 0 0 0 0 0 0 0 0 0 0 0 0 0 0 0 0 0 0 0 0 0 0 0 0 0 0 0 0 0 0 0 0 0 0
0 0 0 0 0 0 0 0 0 0 0 0 0 0 0 0 0 0 0 0 0 0 0 0 0 0 0 0 0 0 0 0 0 0 0 0 0 0 0 0 0 0 0
0 0 0 0 0 0 0 0 0 0 0 0 0 0 0 0 0 0 0 0 0 0 0 0 0 0 0 0 0 0 0 0 0 0 0 0 0 0 0 0 0 0 0
0 0 0 0 0 0 0 0 0 0 0 0 0 0 0 0 0 0 0 0 0 0 0 0 0 0 0 0 0 0 0 0 0 0 0 0 0 0 0 0 0 0 0
0 0 0 0 0 0 0 0 0 0 0 0 0 0 0 0 0 0 0 0 0 0 0 0 0 0 0 0 0 0 0 0 0 0 0 0 0 0 0 0 0 0 0
0 0 0 0 0 0 0 0 0 0 0 0 0 0 0 0 0 0 0 0 0 0 0 0 0 0 0 0 0 0 0 0 0 0 0 0 0 0 0 0 0 0 0
0 0 0 0 0 0 0 0 0 0 0 0 0 0 0 0 0 0 0 0 0 0 0 0 0 0 0 0 0 0 0 0 0 0 0 0 0 0 0 0 0 0 0
0 0 0 0 0 0 0 0 0 0 0 0 0 0 0 0 0 0 0 0 0 0 0 0 0 0 0 0 0 0 0 0 0 0 0 0 0 0 0 0 0 0 0
0 0 0 0 0 0 0 0 0 0 0 0 0 0 0 0 0 0 0 0 0 0 0 0 0 0 0 0 0 0 0 0 0 0 0 0 0 0 0 0 0 0 0
0 0 0 0 0 0 0 0 0 0 0 0 0 0 0 0 0 0 0 0 0 0 0 0 0 0 0 0 0 0 0 0 0 0 0 0 0 0 0 0 0 0 0
0 0 0 0 0 0 0 0 0 0 0 0 0 0 0 0 0 0 0 0 0 0 0 0 0 0 0 0 0 0 0 0 0 0 0 0 0 0 0 0 0 0 0
0 0 0 0 0 0 0 0 0 0 0 0 0 0 0 0 0 0 0 0 0 0 0 0 0 0 0 0 0 0 0 0 0 0 0 0 0 0 0 0 0 0 0
0 0 0 0 0 0 0 0 0 0 0 0 0 0 0 0 0 0 0 0 0 0 0 0 0 0 0 0 0 0 0 0 0 0 0 0 0 0 0 0 0 0 0
0 0 0 0 0 0 0 0 0 0 0 0 0 0 0 0 0 0 0 0 0 0 0 0 0 0 0 0 0 0 0 0 0 0 0 0 0 0 0 0 0 0 0
0 0 0 0 0 0 0 0 0 0 0 0 0 0 0 0 0 0 0 0 0 0 0 0 0 0 0 0 0 0 0 0 0 0 0 0 0 0 0 0 0 0 0
0 0 0 0 0 0 0 0 0 0 0 0 0 0 0 0 0 0 0 0 0 0 0 0 0 0 0 0 0 0 0 0 0 0 0 0 0 0 0 0 0 0 0
0 0 0 0 0 0 0 0 0 0 0 0 0 0 0 0 0 0 0 0 0 0 0 0 0 0 0 0 0 0 0 0 0 0 0 0 0 0 0 0 0 0 0
0 0 0 0 0 0 0 0 0 0 0 0 0 0 0 0 0 0 0 0 0 0 0 0 0 0 0 0 0 0 0 0 0 0 0 0 0 0 0 0 0 0 0
0 0 0 0 0 0 0 0 0 0 0 0 0 0 0 0 0 0 0 0 0 0 0 0 0 0 0 0 0 0 0 0 0 0 0 0 0 0 0 0 0 0 0
0 0 0 0 0 0 0 0 0 0 0 0 0 0 0 0 0 0 0 0 0 0 0 0 0 0 0 0 0 0 0 0 0 0 0 0 0 0 0 0 0 0 0
0 0 0 0 0 0 0 0 0 0 0 0 0 0 0 0 0 0 0 0 0 0 0 0 0 0 0 0 0 0 0 0 0 0 0 0 0 0 0 0 0 0 0
0 0 0 0 0 0 0 0 0 0 0 0 0 0 0 0 0 0 0 0 0 0 0 0 0 0 0 0 0 0 0 0 0 0 0 0 0 0 0 0 0 0 0
0 0 0 0 0 0 0 0 0 0 0 0 0 0 0 0 0 0 0 0 0 0 0 0 0 0 0 0 0 0 0 0 0 0 0 0 0 0 0 0 0 0 0
0 0 0 0 0 0 0 0 0 0 0 0 0 0 0 0 0 0 0 0 0 0 0 0 0 0 0 0 0 0 0 0 0 0 0 0 0 0 0 0 0 0 0
Height
5812 5809 5806 5803 5800 5797 5793 5790 5786 5782 5778 5775 5771 5768 5765 5763 5760 5758 5756 5755 5755 5755 5755 5756 5757 5758 5760 5762 5764 5767 5769 5772 5775 5777 5780 5783 5787 5790 5793 5796 5799 5802 5806
5810 5808 5805 5802 5799 5796 5793 5789 5786 5782 5779 5775 5772 5768 5766 5763 5760 5758 5756 5755 5754 5754 5754 5754 5755 5756 5757 5759 5761 5763 5766 5768 5771 5773 5776 5778 5781 5784 5787 5790 5793 5796 5799
5809 5806 5804 5801 5798 5795 5792 5789 5785 5782 5779 5775 5772 5769 5766 5763 5761 5758 5756 5754 5754 5753 5753 5753 5753 5754 5755 5757 5759 5761 5763 5765 5767 5769 5771 5773 5776 5778 5780 5783 5786 5789 5792
5807 5805 5802 5800 5797 5794 5791 5788 5785 5782 5779 5776 5773 5769 5766 5764 5761 5759 5757 5755 5754 5753 5752 5752 5752 5753 5753 5755 5756 5758 5759 5761 5763 5765 5766 5768 5770 5772 5775 5777 5780 5782 5785
5805 5803 5801 5798 5795 5793 5790 5787 5784 5782 5779 5776 5773 5770 5767 5764 5762 5759 5757 5756 5754 5753 5752 5751 5751 5751 5752 5753 5754 5755 5756 5757 5759 5760 5762 5764 5766 5768 5769 5771 5774 5776 5778
5802 5801 5799 5796 5794 5791 5789 5786 5784 5781 5778 5775 5773 5770 5767 5764 5762 5760 5758 5756 5754 5753 5752 5750 5750 5750 5750 5750 5751 5752 5753 5754 5755 5756 5758 5760 5761 5763 5764 5766 5768 5770 5772
5799 5798 5796 5794 5792 5790 5787 5785 5782 5780 5777 5775 5772 5770 5767 5764 5762 5760 5758 5756 5754 5753 5751 5750 5749 5748 5748 5748 5748 5749 5750 5750 5751 5753 5754 5755 5757 5758 5759 5761 5762 5764 5766
5796 5795 5793 5791 5789 5787 5785 5783 5781 5778 5776 5774 5771 5769 5767 5764 5762 5759 5757 5755 5754 5752 5750 5749 5748 5747 5746 5746 5746 5746 5746 5747 5748 5749 5750 5751 5752 5753 5754 5755 5756 5758 5759
5792 5791 5789 5788 5786 5784 5783 5781 5778 5776 5774 5772 5770 5768 5766 5763 5761 5759 5756 5754 5753 5751 5749 5747 5746 5745 5744 5743 5743 5743 5743 5743 5744 5744 5745 5746 5747 5748 5749 5750 5751 5752 5753
5787 5786 5785 5784 5782 5781 5779 5778 5776 5774 5772 5770 5768 5766 5764 5762 5759 5757 5755 5753 5751 5749 5748 5746 5744 5743 5742 5741 5740 5740 5740 5740 5740 5740 5741 5741 5742 5742 5743 5744 5745 5746 5746
5781 5781 5780 5779 5778 5777 5775 5774 5772 5770 5769 5767 5765 5763 5761 5759 5757 5755 5753 5751 5749 5747 5745 5744 5742 5740 5739 5738 5737 5737 5736 5736 5736 5736 5736 5737 5737 5737 5737 5738 5738 5739 5739
5775 5774 5774 5773 5773 5772 5770 5769 5768 5766 5765 5763 5762 5760 5758 5756 5754 5752 5750 5748 5746 5745 5743 5741 5739 5737 5736 5735 5734 5733 5732 5732 5732 5732 5731 5731 5731 5731 5731 5732 5732 5732 5732
5768 5768 5767 5767 5766 5766 5765 5764 5763 5761 5760 5759 5757 5756 5754 5752 5750 5748 5746 5745 5743 5741 5739 5737 5736 5734 5732 5731 5730 5729 5728 5728 5727 5727 5726 5726 5726 5725 5725 5725 5725 5725 5725
5760 5760 5760 5760 5760 5759 5758 5757 5757 5756 5755 5753 5752 5751 5749 5748 5746 5744 5742 5740 5739 5737 5735 5733 5731 5730 5728 5727 5726 5724 5723 5723 5722 5721 5721 5720 5720 5719 5719 5719 5718 5718 5718
5751 5752 5752 5752 5752 5751 5751 5750 5750 5749 5748 5747 5746 5745 5743 5742 5740 5739 5737 5736 5734 5732 5730 5728 5727 5725 5724 5722 5721 5719 5718 5717 5716 5716 5715 5714 5714 5713 5712 5712 5711 5711 5710
5741 5742 5743 5743 5743 5743 5743 5742 5742 5741 5740 5740 5739 5738 5736 5735 5734 5733 5731 5729 5728 5726 5725 5723 5721 5720 5718 5717 5715 5714 5712 5711 5710 5709 5708 5707 5706 5706 5705 5704 5704 5703 5703
5731 5732 5732 5733 5733 5733 5734 5733 5733 5733 5732 5732 5731 5730 5729 5728 5727 5725 5724 5723 5721 5720 5718 5717 5715 5713 5712 5710 5709 5707 5705 5704 5702 5701 5700 5699 5698 5697 5696 5696 5695 5694 5693
5720 5720 5721 5722 5723 5723 5724 5724 5724 5724 5723 5723 5722 5721 5721 5720 5719 5718 5716 5715 5714 5712 5711 5709 5708 5706 5704 5703 5701 5699 5698 5696 5694 5693 5691 5690 5689 5688 5687 5686 5685 5684 5684
5708 5708 5710 5711 5711 5712 5712 5713 5713 5713 5713 5713 5713 5712 5712 5711 5710 5709 5708 5707 5706 5704 5703 5701 5699 5698 5696 5694 5693 5691 5689 5687 5686 5684 5682 5681 5679 5678 5677 5676 5675 5674 5673
5695 5696 5697 5698 5699 5700 5700 5701 5702 5702 5703 5703 5703 5702 5702 5701 5700 5700 5698 5697 5696 5695 5694 5692 5690 5689 5687 5685 5684 5682 5680 5678 5676 5674 5672 5671 5669 5668 5666 5665 5664 5663 5661
5682 5682 5683 5685 5686 5687 5688 5689 5690 5690 5691 5692 5692 5691 5691 5690 5690 5689 5688 5687 5686 5685 5684 5682 5681 5679 5677 5675 5674 5672 5670 5668 5666 5664 5662 5660 5658 5657 5655 5653 5652 5650 5649
5667 5668 5669 5671 5672 5674 5675 5676 5677 5678 5678 5679 5680 5679 5679 5679 5679 5678 5678 5677 5675 5674 5673 5672 5670 5668 5666 5665 5663 5661 5659 5657 5655 5653 5651 5649 5647 5645 5643 5641 5639 5638 5636
5651 5653 5655 5656 5658 5660 5661 5662 5664 5665 5666 5666 5667 5667 5667 5667 5667 5666 5666 5665 5664 5663 5662 5660 5659 5657 5655 5653 5651 5649 5647 5645 5643 5641 5639 5637 5635 5633 5631 5629 5626 5624 5622
5635 5637 5639 5641 5643 5645 5647 5648 5650 5651 5652 5653 5654 5654 5654 5654 5654 5654 5654 5653 5652 5651 5650 5648 5647 5645 5643 5641 5639 5637 5635 5632 5630 5628 5626 5624 5622 5620 5618 5615 5613 5610 5608
5619 5621 5624 5626 5628 5630 5632 5634 5635 5637 5638 5639 5640 5640 5641 5641 5641 5641 5641 5640 5639 5638 5637 5636 5634 5633 5631 5629 5627 5624 5622 5620 5618 5616 5614 5611 5609 5607 5604 5602 5599 5596 5593
5603 5605 5608 5610 5613 5615 5617 5619 5621 5622 5624 5625 5626 5627 5627 5628 5628 5628 5628 5627 5626 5625 5624 5623 5621 5620 5618 5616 5614 5612 5609 5607 5605 5603 5600 5598 5596 5593 5590 5588 5585 5582 5579
Wind_Speed
15 16 17 17 17 18 18 19 19 18 18 17 16 14 13 12 11 10 8 7 6 6 6 8 9 11 12 13 13 15 16 18 20 22 24 25 26 27 28 29 30 31 30
15 16 16 16 17 17 18 18 18 18 18 17 16 15 14 13 12 11 9 7 6 5 6 7 8 10 11 11 12 13 14 15 16 18 21 23 24 24 27 29 29 30 30
15 15 16 16 16 16 17 17 18 17 17 17 17 16 15 13 13 12 10 8 6 6 6 6 7 8 9 10 11 12 13 14 15 16 18 21 22 22 24 26 28 29 30
14 15 16 16 16 16 16 16 17 17 17 16 16 16 15 14 13 12 11 9 7 7 6 5 5 6 7 9 10 11 12 14 15 15 17 18 20 21 22 24 26 27 28
14 15 15 16 16 16 15 16 15 16 16 16 16 16 15 14 13 12 11 10 9 8 6 5 5 6 7 8 10 11 12 13 15 16 17 18 18 20 21 22 24 26 27
14 15 15 15 15 15 15 15 15 15 15 15 15 15 15 14 13 12 11 10 10 9 8 6 6 6 7 9 10 11 12 13 14 15 16 17 17 18 20 21 22 24 25
15 15 15 15 15 15 15 15 15 14 14 15 15 15 15 14 14 13 12 11 10 10 9 8 7 7 8 9 10 11 12 13 14 15 16 17 17 18 19 21 22 23 25
16 16 15 15 15 15 15 15 15 15 14 14 14 14 14 14 14 13 13 12 12 11 11 10 9 9 8 9 10 11 12 13 13 14 15 16 17 19 19 19 20 22 23
17 17 16 16 16 16 16 16 15 15 15 14 14 14 14 14 14 14 13 13 12 12 12 11 11 10 10 9 10 11 12 13 13 14 15 16 17 18 19 20 20 21 22
19 19 18 17 17 17 17 16 16 16 15 15 15 14 14 14 14 14 14 14 14 13 13 12 12 11 10 10 10 11 12 13 13 14 15 16 18 18 19 20 21 22 23
21 20 20 19 19 18 18 18 18 17 17 16 16 16 15 15 15 15 15 15 15 15 14 14 13 13 12 12 12 12 12 13 14 15 16 17 18 19 19 20 21 22 23
23 23 22 21 21 20 20 20 19 19 18 18 17 17 17 17 17 16 16 16 16 16 16 15 15 15 14 14 14 13 14 14 15 15 16 17 18 19 20 21 22 23 23
25 25 24 23 23 22 22 21 21 20 20 19 19 19 18 18 18 18 18 18 18 18 18 17 16 16 16 16 16 15 15 15 16 16 17 18 18 19 20 21 22 23 24
28 27 27 26 25 25 24 23 23 23 22 22 21 21 20 20 19 19 19 19 19 19 19 19 18 18 17 17 17 17 17 18 18 18 19 19 20 20 21 22 23 24 25
30 30 29 28 28 27 26 26 25 25 24 24 24 23 22 22 21 21 21 21 21 20 20 20 20 20 20 19 19 19 20 20 20 21 21 22 22 22 23 24 24 25 26
33 32 32 31 30 29 29 28 28 27 27 26 26 25 25 24 24 23 23 22 22 22 22 22 22 21 21 22 22 22 22 22 23 23 24 24 24 25 25 25 26 26 27
35 35 34 33 32 32 31 30 30 30 29 29 28 27 27 26 26 26 25 25 25 25 24 24 24 24 24 24 24 24 24 25 25 25 26 27 27 28 28 28 28 28 29
37 37 36 35 35 34 33 33 32 32 31 31 30 30 29 28 28 28 28 28 27 27 27 27 26 26 26 26 26 26 27 27 27 28 28 28 29 29 30 30 30 30 31
39 39 38 37 37 36 36 35 35 34 34 33 32 32 31 31 31 31 30 29 29 29 29 29 29 28 28 28 29 29 29 29 30 30 30 31 31 31 31 31 32 32 33
41 41 41 40 39 38 38 38 38 37 36 35 35 34 34 33 33 33 32 32 31 31 31 31 31 31 31 31 31 31 31 31 32 32 32 32 32 32 33 33 34 34 35
44 43 43 42 42 41 40 40 39 39 39 38 37 37 36 36 35 35 35 34 34 33 33 33 33 33 33 33 33 33 33 33 33 33 33 34 34 34 35 35 36 36 37
46 46 45 45 43 43 43 42 42 41 41 40 39 39 39 38 38 37 37 36 35 35 35 35 34 34 34 34 35 35 35 35 35 35 35 35 36 36 37 37 38 38 39
47 47 46 46 45 45 45 44 43 42 42 42 41 40 40 40 39 38 38 37 37 36 36 36 36 36 36 36 37 37 37 37 37 37 37 37 38 38 39 39 40 41 41
48 47 47 47 46 46 46 45 44 44 43 43 42 41 41 41 41 40 40 39 38 38 38 38 38 37 38 38 38 38 38 39 39 39 39 39 39 40 40 41 42 43 43
49 48 47 47 46 46 46 45 45 45 44 43 43 42 42 42 41 41 40 40 40 40 39 39 39 38 38 39 39 39 39 39 39 40 40 40 40 41 42 42 43 44 44
48 48 47 47 47 46 46 46 45 44 44 43 42 42 42 42 41 41 41 41 41 41 41 40 40 39 39 40 40 40 40 40 40 40 40 41 41 41 42 42 43 43 44
Wind_Direction
336 339 340 342 345 348 351 353 355 357 358 359 359 359 357 357 356 350 341 323 307 291 274 261 249 243 240 239 236 235 235 236 237 236 235 236 236 237 238 238 237 238 239
333 337 339 341 343 346 349 352 355 357 359 359 359 358 358 358 359 356 348 336 322 305 286 271 256 246 242 241 237 237 237 237 236 237 238 239 240 241 240 239 238 239 240
331 334 337 339 341 343 346 349 353 355 358 360 1 0 0 360 360 0 356 350 339 324 304 284 266 253 246 245 241 238 238 238 237 239 241 241 241 242 240 238 238 240 240
327 331 334 337 338 340 342 345 349 353 355 358 1 2 2 1 1 2 3 359 351 338 322 304 278 261 255 251 247 244 242 241 238 238 239 240 242 244 241 240 239 240 242
321 326 330 334 337 338 338 340 344 349 352 355 357 359 0 0 360 0 2 1 356 347 333 314 291 272 261 257 253 250 247 246 244 241 240 241 244 245 244 243 242 243 244
313 318 324 328 333 336 337 337 339 343 348 351 355 357 359 359 358 357 357 357 354 349 343 327 304 285 273 265 261 257 253 251 249 247 245 244 247 248 248 247 246 244 245
304 310 316 321 326 330 333 334 336 337 340 345 349 353 355 356 356 355 352 350 350 348 343 336 324 303 285 275 268 264 260 257 257 254 251 249 250 250 250 249 249 250 250
297 301 307 313 317 322 326 328 331 332 333 336 340 344 348 351 351 351 349 347 344 343 341 336 329 320 303 289 278 270 267 264 262 260 258 256 256 257 257 255 254 253 252
291 294 297 302 308 313 317 321 323 325 327 328 330 333 337 340 342 343 342 343 342 339 336 334 331 323 311 300 288 278 273 269 267 265 263 261 261 261 261 260 260 259 255
285 287 290 294 298 303 307 311 315 319 320 322 323 325 326 329 332 334 335 335 335 334 331 328 326 324 319 307 297 288 280 274 271 270 268 266 266 264 262 262 263 262 259
280 282 284 287 291 295 299 303 306 310 313 314 316 318 319 321 323 324 326 327 328 328 326 322 320 318 315 310 303 296 288 280 277 275 271 269 268 267 266 266 266 265 263
275 278 280 282 285 288 292 296 298 301 305 308 309 310 312 313 315 316 318 320 320 320 321 319 316 314 311 307 302 297 292 287 282 280 277 275 272 271 269 268 269 268 267
272 274 276 278 280 283 286 289 292 294 297 301 302 303 304 306 308 310 312 313 315 314 313 312 311 311 309 305 301 296 293 290 286 283 281 278 276 274 272 270 270 269 269
270 271 273 275 278 280 282 284 286 288 291 294 296 297 298 300 301 304 306 307 309 311 310 308 306 306 305 303 300 298 294 290 288 286 283 281 279 278 276 275 273 272 272
267 268 270 272 275 277 279 280 282 284 286 288 291 292 293 294 296 298 300 302 303 304 305 305 304 302 301 300 298 297 295 291 288 286 284 282 280 279 278 277 276 275 274
266 266 268 270 272 274 275 277 279 281 282 284 286 288 289 290 292 294 296 298 299 300 300 301 300 299 298 298 297 295 293 292 289 287 284 282 281 279 278 277 277 276 275
265 265 266 267 269 271 273 274 276 278 280 282 283 284 285 287 289 291 292 294 295 296 296 297 297 295 295 295 294 294 293 292 291 288 286 284 282 280 279 278 278 277 277
265 265 265 266 268 269 271 272 273 274 276 278 280 281 282 284 286 287 289 291 293 294 294 295 295 294 294 293 293 293 292 291 290 289 287 286 284 282 280 279 279 278 277
263 264 264 265 266 267 268 269 271 272 273 275 276 278 279 281 283 285 286 288 289 291 292 293 293 293 293 292 292 292 292 292 290 289 288 286 285 283 282 281 280 279 279
262 262 263 263 264 265 267 268 269 270 272 273 274 276 277 279 281 282 284 286 287 289 290 291 291 292 291 291 292 292 292 291 290 289 288 287 285 284 283 282 282 281 280
261 261 261 262 263 264 265 267 268 269 270 272 273 274 276 277 278 280 282 284 285 287 288 289 290 290 290 291 291 291 291 291 289 288 287 287 286 284 283 283 283 283 283
260 260 260 261 261 263 264 265 267 268 269 270 272 274 275 276 277 279 281 283 284 285 286 287 288 289 289 290 290 290 290 290 289 288 287 286 286 286 285 284 284 284 284
260 259 259 260 260 261 262 264 266 267 269 270 271 273 274 276 277 278 279 281 282 284 285 286 286 287 289 290 290 290 289 289 288 288 287 286 286 285 285 285 285 285 285
258 258 259 259 259 260 261 263 264 266 268 269 270 271 273 274 276 278 279 279 281 283 284 285 286 287 288 289 290 290 289 288 287 287 287 286 286 286 286 286 286 286 286
258 258 257 258 259 259 260 261 263 265 266 268 268 270 271 272 274 275 277 279 280 281 283 284 285 286 287 289 289 289 289 288 287 287 287 287 287 287 287 287 287 287 287
256 257 256 255 257 258 259 260 261 263 264 266 267 268 270 271 272 274 276 278 279 281 282 283 284 286 287 288 288 289 289 288 288 287 287 287 287 288 288 289 289 289 289